Time,TemperatureF,DewpointF,PressureIn,WindDirection,WindDirectionDegrees,WindSpeedMPH,WindSpeedGustMPH,Humidity,HourlyPrecipIn,Conditions,Clouds,dailyrainin,SoftwareType,DateUTC
2016-02-13 00:05:00,21.9,8.6,30.20,East,90,4.0,15.0,56,0.00,,---,0.00,VWS V15.00,2016-02-13 05:05:00,
2016-02-13 00:10:00,21.9,8.2,30.21,East,95,5.0,9.0,55,0.00,,---,0.00,VWS V15.00,2016-02-13 05:10:00,
2016-02-13 00:15:00,21.8,7.7,30.21,West,263,4.0,11.0,54,0.00,,---,0.00,VWS V15.00,2016-02-13 05:15:00,
2016-02-13 00:25:00,21.6,7.1,30.22,WSW,237,4.0,11.0,53,0.00,,---,0.00,VWS V15.00,2016-02-13 05:25:00,
2016-02-13 00:30:00,21.5,7.4,30.22,SSE,158,5.0,10.0,54,0.00,,---,0.00,VWS V15.00,2016-02-13 05:30:00,
2016-02-13 00:35:00,21.4,6.9,30.22,WSW,241,2.0,14.0,53,0.00,,---,0.00,VWS V15.00,2016-02-13 05:35:00,
2016-02-13 00:40:00,21.2,6.8,30.23,NNE,20,10.0,10.0,53,0.00,,---,0.00,VWS V15.00,2016-02-13 05:40:00,
2016-02-13 00:45:00,21.1,7.1,30.23,WSW,242,2.0,12.0,54,0.00,,---,0.00,VWS V15.00,2016-02-13 05:45:00,
2016-02-13 00:50:00,21.0,6.6,30.23,SSW,203,3.0,13.0,53,0.00,,---,0.00,VWS V15.00,2016-02-13 05:50:00,
2016-02-13 00:55:00,20.8,6.0,30.24,SSE,165,3.0,8.0,52,0.00,,---,0.00,VWS V15.00,2016-02-13 05:55:00,
2016-02-13 01:00:00,20.6,6.2,30.24,North,5,1.0,17.0,53,0.00,,---,0.00,VWS V15.00,2016-02-13 06:00:00,
2016-02-13 01:05:00,20.4,6.0,30.24,SSE,166,4.0,10.0,53,0.00,,---,0.00,VWS V15.00,2016-02-13 06:05:00,
2016-02-13 01:10:00,20.1,5.7,30.24,South,181,3.0,5.0,53,0.00,,---,0.00,VWS V15.00,2016-02-13 06:10:00,
2016-02-13 01:15:00,20.0,5.6,30.24,South,189,6.0,7.0,53,0.00,,---,0.00,VWS V15.00,2016-02-13 06:15:00,
2016-02-13 01:20:00,19.9,5.9,30.25,SSE,152,4.0,11.0,54,0.00,,---,0.00,VWS V15.00,2016-02-13 06:20:00,
2016-02-13 01:25:00,19.9,6.3,30.24,East,90,4.0,9.0,55,0.00,,---,0.00,VWS V15.00,2016-02-13 06:25:00,
2016-02-13 01:35:00,19.8,5.8,30.25,South,170,5.0,7.0,54,0.00,,---,0.00,VWS V15.00,2016-02-13 06:35:00,
2016-02-13 01:40:00,19.9,6.3,30.26,WSW,240,4.0,14.0,55,0.00,,---,0.00,VWS V15.00,2016-02-13 06:40:00,
2016-02-13 01:45:00,19.8,6.3,30.26,South,182,4.0,9.0,55,0.00,,---,0.00,VWS V15.00,2016-02-13 06:45:00,
2016-02-13 01:50:00,19.7,6.2,30.26,South,185,1.0,10.0,55,0.00,,---,0.00,VWS V15.00,2016-02-13 06:50:00,
2016-02-13 01:55:00,19.7,6.2,30.26,South,185,2.0,4.0,55,0.00,,---,0.00,VWS V15.00,2016-02-13 06:55:00,
2016-02-13 02:00:00,19.7,5.8,30.26,SSW,205,4.0,5.0,54,0.00,,---,0.00,VWS V15.00,2016-02-13 07:00:00,
2016-02-13 02:05:00,19.6,5.7,30.26,ESE,123,2.0,6.0,54,0.00,,---,0.00,VWS V15.00,2016-02-13 07:05:00,
2016-02-13 02:10:00,19.5,5.2,30.26,NW,310,3.0,10.0,53,0.00,,---,0.00,VWS V15.00,2016-02-13 07:10:00,
2016-02-13 02:15:00,19.4,5.5,30.26,West,274,3.0,4.0,54,0.00,,---,0.00,VWS V15.00,2016-02-13 07:15:00,
2016-02-13 02:20:00,19.3,5.0,30.27,SW,227,1.0,9.0,53,0.00,,---,0.00,VWS V15.00,2016-02-13 07:20:00,
2016-02-13 02:25:00,19.1,5.2,30.27,SW,235,5.0,5.0,54,0.00,,---,0.00,VWS V15.00,2016-02-13 07:25:00,
2016-02-13 02:30:00,19.0,5.1,30.27,South,179,1.0,5.0,54,0.00,,---,0.00,VWS V15.00,2016-02-13 07:30:00,
2016-02-13 02:45:00,18.5,5.0,30.27,SSW,204,0.0,3.0,55,0.00,,---,0.00,VWS V15.00,2016-02-13 07:45:00,
2016-02-13 02:50:00,18.4,4.9,30.28,South,190,4.0,5.0,55,0.00,,---,0.00,VWS V15.00,2016-02-13 07:50:00,
2016-02-13 03:00:00,18.2,5.2,30.28,SSW,209,2.0,7.0,56,0.00,,---,0.00,VWS V15.00,2016-02-13 08:00:00,
2016-02-13 03:05:00,18.1,5.4,30.28,SSW,208,0.0,4.0,57,0.00,,---,0.00,VWS V15.00,2016-02-13 08:05:00,
2016-02-13 03:15:00,17.8,6.3,30.29,SSW,211,0.0,5.0,60,0.00,,---,0.00,VWS V15.00,2016-02-13 08:15:00,
2016-02-13 03:20:00,17.6,5.7,30.30,South,187,0.0,5.0,59,0.00,,---,0.00,VWS V15.00,2016-02-13 08:20:00,
2016-02-13 03:25:00,17.6,5.7,30.30,SSE,157,1.0,5.0,59,0.00,,---,0.00,VWS V15.00,2016-02-13 08:25:00,
2016-02-13 03:30:00,17.7,5.8,30.30,SSW,201,0.0,3.0,59,0.00,,---,0.00,VWS V15.00,2016-02-13 08:30:00,
2016-02-13 03:35:00,17.7,5.8,30.30,SSW,199,0.0,4.0,59,0.00,,---,0.00,VWS V15.00,2016-02-13 08:35:00,
2016-02-13 03:40:00,17.7,5.8,30.31,SSW,199,0.0,3.0,59,0.00,,---,0.00,VWS V15.00,2016-02-13 08:40:00,
2016-02-13 03:45:00,17.7,5.8,30.31,SSW,211,3.0,5.0,59,0.00,,---,0.00,VWS V15.00,2016-02-13 08:45:00,
2016-02-13 03:50:00,17.7,5.8,30.31,SSW,211,0.0,3.0,59,0.00,,---,0.00,VWS V15.00,2016-02-13 08:50:00,
2016-02-13 04:00:00,17.6,5.7,30.31,South,189,2.0,3.0,59,0.00,,---,0.00,VWS V15.00,2016-02-13 09:00:00,
2016-02-13 04:05:00,17.5,5.6,30.31,South,189,0.0,2.0,59,0.00,,---,0.00,VWS V15.00,2016-02-13 09:05:00,
2016-02-13 04:10:00,17.3,5.8,30.31,South,190,2.0,4.0,60,0.00,,---,0.00,VWS V15.00,2016-02-13 09:10:00,
2016-02-13 04:15:00,17.2,5.7,30.32,SW,224,1.0,9.0,60,0.00,,---,0.00,VWS V15.00,2016-02-13 09:15:00,
2016-02-13 04:20:00,17.0,5.2,30.32,SSW,204,3.0,7.0,59,0.00,,---,0.00,VWS V15.00,2016-02-13 09:20:00,
2016-02-13 04:25:00,16.9,5.4,30.32,SSW,203,1.0,3.0,60,0.00,,---,0.00,VWS V15.00,2016-02-13 09:25:00,
2016-02-13 04:30:00,16.7,5.2,30.32,South,188,3.0,5.0,60,0.00,,---,0.00,VWS V15.00,2016-02-13 09:30:00,
2016-02-13 04:40:00,16.4,5.0,30.33,SSW,205,1.0,10.0,60,0.00,,---,0.00,VWS V15.00,2016-02-13 09:40:00,
2016-02-13 04:45:00,16.3,4.9,30.33,SW,219,4.0,7.0,60,0.00,,---,0.00,VWS V15.00,2016-02-13 09:45:00,
2016-02-13 04:50:00,16.2,4.8,30.33,SSW,199,2.0,9.0,60,0.00,,---,0.00,VWS V15.00,2016-02-13 09:50:00,
2016-02-13 04:55:00,16.1,5.0,30.34,WSW,240,3.0,7.0,61,0.00,,---,0.00,VWS V15.00,2016-02-13 09:55:00,
2016-02-13 05:00:00,15.9,4.8,30.34,SSE,152,0.0,7.0,61,0.00,,---,0.00,VWS V15.00,2016-02-13 10:00:00,
2016-02-13 05:05:00,15.8,4.8,30.35,South,184,2.0,5.0,61,0.00,,---,0.00,VWS V15.00,2016-02-13 10:05:00,
2016-02-13 05:10:00,15.8,4.8,30.35,WSW,244,2.0,6.0,61,0.00,,---,0.00,VWS V15.00,2016-02-13 10:10:00,
2016-02-13 05:15:00,15.8,5.1,30.35,West,259,3.0,3.0,62,0.00,,---,0.00,VWS V15.00,2016-02-13 10:15:00,
2016-02-13 05:20:00,15.8,5.1,30.35,West,269,4.0,4.0,62,0.00,,---,0.00,VWS V15.00,2016-02-13 10:20:00,
2016-02-13 05:25:00,15.9,5.2,30.36,SW,233,1.0,4.0,62,0.00,,---,0.00,VWS V15.00,2016-02-13 10:25:00,
2016-02-13 05:30:00,16.0,5.3,30.36,SW,233,2.0,4.0,62,0.00,,---,0.00,VWS V15.00,2016-02-13 10:30:00,
2016-02-13 05:35:00,16.0,5.3,30.36,South,173,3.0,8.0,62,0.00,,---,0.00,VWS V15.00,2016-02-13 10:35:00,
2016-02-13 05:40:00,16.0,5.3,30.36,SW,215,0.0,6.0,62,0.00,,---,0.00,VWS V15.00,2016-02-13 10:40:00,
2016-02-13 05:45:00,16.1,5.0,30.36,WSW,242,2.0,6.0,61,0.00,,---,0.00,VWS V15.00,2016-02-13 10:45:00,
2016-02-13 05:50:00,16.1,5.0,30.37,South,175,1.0,13.0,61,0.00,,---,0.00,VWS V15.00,2016-02-13 10:50:00,
2016-02-13 06:00:00,16.0,4.9,30.37,WSW,250,3.0,6.0,61,0.00,,---,0.00,VWS V15.00,2016-02-13 11:00:00,
2016-02-13 06:05:00,15.9,4.8,30.37,SW,233,0.0,4.0,61,0.00,,---,0.00,VWS V15.00,2016-02-13 11:05:00,
2016-02-13 06:10:00,15.8,4.8,30.37,SSE,159,1.0,6.0,61,0.00,,---,0.00,VWS V15.00,2016-02-13 11:10:00,
2016-02-13 06:15:00,15.8,5.1,30.37,SW,217,0.0,5.0,62,0.00,,---,0.00,VWS V15.00,2016-02-13 11:15:00,
2016-02-13 06:20:00,15.8,5.1,30.38,SSW,196,0.0,5.0,62,0.00,,---,0.00,VWS V15.00,2016-02-13 11:20:00,
2016-02-13 06:25:00,15.8,5.1,30.38,SW,234,3.0,6.0,62,0.00,,---,0.00,VWS V15.00,2016-02-13 11:25:00,
2016-02-13 06:30:00,15.7,5.0,30.38,SW,221,0.0,4.0,62,0.00,,---,0.00,VWS V15.00,2016-02-13 11:30:00,
2016-02-13 06:35:00,15.6,4.9,30.38,West,267,3.0,6.0,62,0.00,,---,0.00,VWS V15.00,2016-02-13 11:35:00,
2016-02-13 06:45:00,15.2,4.5,30.38,SW,234,1.0,4.0,62,0.00,,---,0.00,VWS V15.00,2016-02-13 11:45:00,
2016-02-13 06:50:00,15.0,4.7,30.39,SW,236,3.0,5.0,63,0.00,,---,0.00,VWS V15.00,2016-02-13 11:50:00,
2016-02-13 06:55:00,14.8,4.2,30.39,WSW,237,2.0,3.0,62,0.00,,---,0.00,VWS V15.00,2016-02-13 11:55:00,
2016-02-13 07:00:00,14.7,4.4,30.40,SW,236,3.0,3.0,63,0.00,,---,0.00,VWS V15.00,2016-02-13 12:00:00,
2016-02-13 07:05:00,14.6,4.7,30.40,SW,236,1.0,4.0,64,0.00,,---,0.00,VWS V15.00,2016-02-13 12:05:00,
2016-02-13 07:10:00,14.4,4.1,30.40,SE,137,0.0,6.0,63,0.00,,---,0.00,VWS V15.00,2016-02-13 12:10:00,
2016-02-13 07:15:00,14.4,4.5,30.41,SSE,148,0.0,3.0,64,0.00,,---,0.00,VWS V15.00,2016-02-13 12:15:00,
2016-02-13 07:20:00,14.4,4.5,30.41,SSW,211,0.0,5.0,64,0.00,,---,0.00,VWS V15.00,2016-02-13 12:20:00,
2016-02-13 07:25:00,14.5,4.2,30.41,West,280,2.0,9.0,63,0.00,,---,0.00,VWS V15.00,2016-02-13 12:25:00,
2016-02-13 07:30:00,14.6,4.7,30.41,West,278,0.0,3.0,64,0.00,,---,0.00,VWS V15.00,2016-02-13 12:30:00,
2016-02-13 07:35:00,14.8,4.8,30.41,SSW,205,2.0,6.0,64,0.00,,---,0.00,VWS V15.00,2016-02-13 12:35:00,
2016-02-13 07:40:00,14.8,4.5,30.42,SE,137,2.0,11.0,63,0.00,,---,0.00,VWS V15.00,2016-02-13 12:40:00,
2016-02-13 07:45:00,14.9,4.6,30.42,SSW,211,4.0,9.0,63,0.00,,---,0.00,VWS V15.00,2016-02-13 12:45:00,
2016-02-13 07:50:00,15.0,4.7,30.42,SSW,193,2.0,5.0,63,0.00,,---,0.00,VWS V15.00,2016-02-13 12:50:00,
2016-02-13 07:55:00,15.0,5.0,30.42,SSW,197,3.0,7.0,64,0.00,,---,0.00,VWS V15.00,2016-02-13 12:55:00,
2016-02-13 08:00:00,15.0,5.0,30.42,South,185,0.0,6.0,64,0.00,,---,0.00,VWS V15.00,2016-02-13 13:00:00,